TJS-12

Last updated on Sun Oct 12 2025 00:02:51 GMT+0000 (Coordinated Universal Time)

1 62374U 24246A 25283.85419659 -.00000237 00000+0 00000+0 0 9998 2 62374 1.2660 287.0571 0001055 215.4603 331.1632 1.00267566 3062
UTC large
Height (km)
Speed (km/s)
/
Latitude / Longitude
Inclination (degrees)
Orbital Period (minutes)
Azimuth
Elevation
Range (km)
Doppler Factor

Next 0 passes for location: London (51.5072 / 0.1276)

Sorry there are no passes over London.